Location: *
(46.1866°S, 178.5290°W)
Time: 18:34:39
(UTC+00:00)

Meteor PRIRODA - Pass Details

Date: 19 May 2021
Orbit: 490 x 508 km, 97.6° (Epoch: 17 June)

Event Time Altitude Azimuth Distance (km) Brightness Sun altitude
Rises 05:08:14 0° 162° (SSE) 2,660 6.9 -7.2°
Reaches altitude 10° 05:10:26 10° 155° (SSE) 1,762 6.0 -7.5°
Maximum altitude 05:14:05 44° 81° (E) 725 4.1 -8.1°
Drops below altitude 10° 05:17:39 10° 8° (N) 1,727 6.5 -8.7°
Sets 05:19:47 0° 1° (N) 2,600 7.5 -9.1°
